Regional Weather Roundup
Issued by NWS

Home | Current Version | Previous Version | Graphics & Text | Print | Product List | Glossary On
Versions: 1 2 3 4 5 6 7 8 9 10 11 12 13 14 15 16 17 18 19 20 21 22 23 24 25 26 27 28 29 30 31 32 33 34 35 36 37 38 39 40 41 42 43 44 45 46 47 48 49 50
000
ASUS45 KABQ 232310
RWRNM
NEW MEXICO REGIONAL WEATHER ROUNDUP
NATIONAL WEATHER SERVICE ALBUQUERQUE NM
400 PM MST THU FEB 23 2017

NOTE: "FAIR" MEANS FEW OR NO CLOUDS BELOW 12,000 FEET AGL WITH NO
       SIGNIFICANT WEATHER OR OBSTRUCTIONS TO VISION.

      THIS PRODUCT IS RELEASED AS TWO VERSIONS.  ONE VERSION NEAR
      THE TOP OF THE HOUR CONTAINING PRELIMINARY DATA FROM ALBUQUERQUE
      AND OTHER STATIONS.  A FINAL VERSION WITH ADDITIONAL DATA IS
      ISSUED ABOUT 10 MINUTES AFTER THE HOUR.

NMZ501-503-504-510>518-240000-
NORTHWEST PLATEAU/NORTHCENTRAL MOUNTAINS

CITY           SKY/WX    TMP DP  RH WIND       PRES   REMARKS
FARMINGTON     FAIR      41  -3  15 W16G36    29.71S
LOS ALAMOS     FAIR      40   5  23 SW21G36   29.68S WCI  30
SANTA FE       FAIR      47   9  21 W17G31    29.65S
TAOS             N/A     39   5  24 W25G36    29.65R WCI  28
ANGEL FIRE     FAIR      32   8  37 W18G29    29.63R WCI  21

$$
NMZ402-403-502-505>509-240000-
WESTCENTRAL MOUNTAINS/SOUTHWEST MOUNTAINS

CITY           SKY/WX    TMP DP  RH WIND       PRES   REMARKS
GALLUP         FAIR      40  10  29 W21G29    29.75R WCI  30
GRANTS         FAIR      45   8  22 W17G30    29.73S
SILVER CITY    FAIR      56  16  20 W18G31    29.81S

$$
NMZ407-409-411-412-240000-
SOUTHERN DESERTS

CITY           SKY/WX    TMP DP  RH WIND       PRES   REMARKS
DEMING         FAIR      65  14  14 W33G41    29.75F HAZE
LAS CRUCES     FAIR      65  24  21 W24G33    29.76S
HOLLOMAN AFB   MOSUNNY   67   9  10 W33G43    29.75R BLWGDUST
ALAMOGORDO     FAIR      66  10  11 W23G29    29.73R
T OR C         FAIR      63   4   9 W20G35    29.70R

$$
NMZ519>523-240000-
CENTRAL VALLEYS/CENTRAL HIGHLANDS

CITY           SKY/WX    TMP DP  RH WIND       PRES   REMARKS
ALBUQUERQUE    FAIR      53   5  14 W25G33    29.67R
DOUBLE EAGLE   MOSUNNY   52   9  17 W29G35    29.68S
MORIARTY ARPT  FAIR      53   5  14 W28G37    29.66R
CLINES CORNERS FAIR      47   4  17 W35G45    29.64R
BELEN          FAIR      59   2  10 W29G35    29.65S
SOCORRO        FAIR      64  -4   6 W20G33    29.64S

$$
NMZ524>526-539-540-240000-
SOUTHCENTRAL MOUNTAINS

CITY           SKY/WX    TMP DP  RH WIND       PRES   REMARKS
RUIDOSO        FAIR      54   9  16 SW30G47   29.70S

$$
NMZ527>531-240000-
NORTHEAST HIGHLANDS/NORTHEAST PLAINS

CITY           SKY/WX    TMP DP  RH WIND       PRES   REMARKS
LAS VEGAS      FAIR      46   7  20 W32G40    29.60R
RATON          FAIR      48   3  15 W21G29    29.53R
CLAYTON        FAIR      61  11  14 SW31G43   29.46R

$$
NMZ532>537-240000-
EASTCENTRAL PLAINS

CITY           SKY/WX    TMP DP  RH WIND       PRES   REMARKS
TUCUMCARI      FAIR      69   5   8 W32G41    29.48R
CANNON AFB     FAIR      70   0   6 W28G41    29.53R
CLOVIS AIRPORT FAIR      70  12  11 W32G40    29.53S

$$
NMZ028-029-538-240000-
SOUTHEAST PLAINS

CITY           SKY/WX    TMP DP  RH WIND       PRES   REMARKS
ROSWELL        FAIR      73   0   5 W31G41    29.60R
ARTESIA        FAIR      73  12   9 W39G51    29.61R
CARLSBAD       FAIR      76  24  14 W32G41    29.60R
HOBBS          SUNNY     73  18  12 SW35G44   29.62R


$$



USA.gov is the U.S. government's official web portal to all federal, state and local government web resources and services.